Weather History for Doha International Airport, Qatar

Change the Weather History Date:

Sunday, May 12, 2013

  Actual Average Record
Temperature  
Mean Temperature 92 °F -  
Max Temperature 103 °F 103 °F - ()
Min Temperature 80 °F 79 °F - ()
Cooling Degree Days 26    
Growing Degree Days 42 (Base 50)    
Moisture  
Dew Point 63 °F    
Average Humidity 40    
Maximum Humidity 66    
Minimum Humidity 15    
Precipitation  
Precipitation 0.00 in 0.00 in - ()
Sea Level Pressure  
Sea Level Pressure 29.72 in    
Wind  
Wind Speed 4 mph ()    
Max Wind Speed 13 mph    
Max Gust Speed -    
Visibility 4.8 miles    
Events      
T = Trace of Precipitation, MM = Missing Value Source: Averaged Metar Reports

Daily Weather History Graph

Daily Weather History Graph

Search for Another Location

Airport:

Trip Planner

Search our weather history database for the weather conditions in past years. The results will help you decide how hot, cold, wet, or windy it might be!

Date:

Astronomy

May. 12, 2013 Rise Set
Actual Time 4:50 AM AST 6:09 PM AST
Civil Twilight 4:25 AM AST 6:34 PM AST
Nautical Twilight 3:56 AM AST 7:03 PM AST
Astronomical Twilight 3:26 AM AST 7:34 PM AST
Moon 6:30 AM AST (5/12) 8:15 PM AST (5/12)
Length of Visible Light 14h 08m
Length of Day
13h 19m
Waxing Crescent, 5% of the Moon is Illuminated
May 12
Waxing Crescent
May 18
First Quarter
May 25
Full
May 31
Last Quarter
Jun 8
New

Hourly Weather History & Observations

Time (AST) Temp. Heat Index Dew Point Humidity Pressure Visibility Wind Dir Wind Speed Gust Speed Precip Events Conditions
12:00 AM 84.2 °F 87.3 °F 68.0 °F 58% 29.71 in - SE 3.5 mph - N/A   Clear
1:00 AM 84.2 °F 87.3 °F 68.0 °F 58% 29.68 in - Variable 1.2 mph - N/A   Clear
1:30 AM 84.2 °F 88.4 °F 69.8 °F 62% 29.68 in - Variable 2.3 mph - N/A   Clear
2:00 AM 84.2 °F 88.4 °F 69.8 °F 62% 29.68 in - SW 3.5 mph - N/A   Clear
3:00 AM 82 °F - 70 °F 59% 29.70 in 7 mi WSW 3.5 mph - -  
3:00 AM 82.4 °F 86.3 °F 69.8 °F 66% 29.68 in - WSW 3.5 mph - N/A   Clear
4:00 AM 82.4 °F 85.4 °F 68.0 °F 62% 29.68 in - Variable 2.3 mph - N/A   Clear
5:00 AM 80.6 °F 83.2 °F 68.0 °F 65% 29.71 in 5.6 mi Variable 2.3 mph - N/A   Unknown
5:30 AM 82.4 °F 85.4 °F 68.0 °F 62% 29.71 in 5.6 mi South 3.5 mph - N/A   Unknown
6:00 AM 82.4 °F 84.6 °F 66.2 °F 58% 29.71 in 5.6 mi SSW 3.5 mph - N/A   Unknown
6:30 AM 86.0 °F 88.2 °F 66.2 °F 51% 29.74 in 5.0 mi SW 5.8 mph - N/A   Unknown
7:00 AM 87.8 °F 89.4 °F 64.4 °F 46% 29.74 in 5.0 mi WSW 5.8 mph - N/A   Unknown
7:30 AM 89.6 °F 90.1 °F 62.6 °F 40% 29.74 in 4.3 mi WSW 4.6 mph - N/A   Unknown
8:00 AM 93.2 °F 93.3 °F 60.8 °F 34% 29.74 in 4.3 mi West 4.6 mph - N/A   Unknown
8:30 AM 98.6 °F 98.5 °F 59.0 °F 27% 29.74 in 4.3 mi WSW 3.5 mph - N/A   Unknown
9:00 AM 99 °F - 60 °F 19% 29.77 in 4 mi WSW 5.8 mph - -   Smoke
9:00 AM 98.6 °F 99.4 °F 60.8 °F 29% 29.74 in 3.7 mi WSW 5.8 mph - N/A   Unknown
9:30 AM 102.2 °F - 46.4 °F 15% 29.74 in 3.7 mi NNW 5.8 mph - N/A   Unknown
10:00 AM 104.0 °F - 48.2 °F 15% 29.77 in 3.7 mi North 9.2 mph - N/A   Unknown
10:30 AM 98.6 °F 100.0 °F 62.6 °F 30% 29.77 in 3.7 mi East 10.4 mph - N/A   Unknown
11:00 AM 96.8 °F 101.8 °F 68.0 °F 39% 29.77 in 4.3 mi ENE 6.9 mph - N/A   Unknown
11:30 AM 95.0 °F 99.5 °F 68.0 °F 41% 29.77 in 4.3 mi East 9.2 mph - N/A   Unknown
12:00 PM 98.6 °F 100.0 °F 62.6 °F 30% 29.74 in - East 9.2 mph - N/A   Clear
12:30 PM 98.6 °F 101.0 °F 64.4 °F 32% 29.74 in - East 8.1 mph - N/A   Clear
1:00 PM 98.6 °F 102.8 °F 66.2 °F 35% 29.74 in - East 10.4 mph - N/A   Clear
2:00 PM 96.8 °F 96.2 °F 59.0 °F 28% 29.71 in - NE 12.7 mph - N/A   Clear
3:00 PM 96 °F - 59 °F 20% 29.73 in 7 mi NE 10.4 mph - -  
3:00 PM 96.8 °F 96.2 °F 59.0 °F 28% 29.71 in - NE 10.4 mph - N/A   Clear
4:00 PM 96.8 °F 94.4 °F 53.6 °F 23% 29.71 in - NE 8.1 mph - N/A   Clear
5:00 PM 95.0 °F - 50.0 °F 22% 29.71 in - NE 8.1 mph - N/A   Clear
6:00 PM 93.2 °F 90.8 °F 53.6 °F 26% 29.71 in - ENE 5.8 mph - N/A   Clear
7:00 PM 89.6 °F 92.2 °F 66.2 °F 46% 29.71 in - ESE 3.5 mph - N/A   Clear
8:00 PM 89.6 °F 89.5 °F 60.8 °F 38% 29.71 in - SSE 4.6 mph - N/A   Clear
9:00 PM 90 °F - 64 °F 32% 29.74 in 6 mi SSE 3.5 mph - -  
9:00 PM 89.6 °F 91.1 °F 64.4 °F 43% 29.74 in - SSE 3.5 mph - N/A   Clear
10:00 PM 91.4 °F 92.1 °F 62.6 °F 38% 29.71 in - Variable 2.3 mph - N/A   Clear
11:00 PM 89.6 °F 93.4 °F 68.0 °F 49% 29.71 in - Variable 2.3 mph - N/A   Clear